Location: Baumgarten
(49.0970°N, 12.7493°E)
Time: 08:45:27
(UTC+00:00)

Cosmos 2369 Rocket - Pass Details

Date: 05 July 2020
Orbit: 830 x 851 km, 71.0° (Epoch: 04 August)

Event Time Altitude Azimuth Distance (km) Brightness Sun altitude
Rises 21:53:30 0° 335° (NNW) 3,384 7.2 -16.0°
Reaches altitude 10° 21:56:26 10° 349° (N) 2,448 5.9 -16.2°
Maximum altitude 22:00:56 24° 43° (NE) 1,656 4.0 -16.4°
Drops below altitude 10° 22:05:27 10° 97° (E) 2,443 4.4 -16.6°
Enters shadow 22:06:58 - 105° (ESE) 2,916 4.7 -16.7°
